Printer-friendly version

IAU Minor Planet Center

Minor Planet Center

MPEC 2006-Q58 : 2006 QV89

The following Minor Planet Electronic Circular may be linked-to from your own Web pages, but must not otherwise be redistributed electronically.


Read MPEC 2006-Q57 Read MPEC 2006-Q59


M.P.E.C. 2006-Q58                                Issued 2006 Aug. 30, 12:57 UT

     The Minor Planet Electronic Circulars contain information on unusual
         minor planets and routine data on comets.  They are published
   on behalf of Commission 20 of the International Astronomical Union by the
          Minor Planet Center, Smithsonian Astrophysical Observatory,
                          Cambridge, MA 02138, U.S.A.

                  Supported in part by the Brinson Foundation
                  Supported in part by the TABASGO Foundation
             Prepared using the Tamkin Foundation Computer Network

                              MPC@CFA.HARVARD.EDU
          URL http://cfa-www.harvard.edu/iau/mpc.html  ISSN 1523-6714

                                   2006 QV89

Observations:
     K06Q89V* C2006 08 29.30747 00 12 34.16 +07 34 01.9          18.9 V EQ058703
     K06Q89V  C2006 08 29.31934 00 12 43.45 +07 35 04.9          18.7 V EQ058703
     K06Q89V  C2006 08 29.32528 00 12 48.20 +07 35 36.7          18.9 V EQ058703
     K06Q89V 5C2006 08 29.43733 00 14 18.56 +07 45 11.7          18.4 R EQ058673
     K06Q89V 5C2006 08 29.43931 00 14 20.24 +07 45 23.0                 EQ058673
     K06Q89V 5C2006 08 29.44449 00 14 24.41 +07 45 50.1                 EQ058673
     K06Q89V 5C2006 08 29.45159 00 14 30.05 +07 46 26.8                 EQ058673
     K06Q89V  C2006 08 29.48522 00 14 55.44 +07 49 31.1          19.1 R EQ058651
     K06Q89V  C2006 08 29.48717 00 14 57.06 +07 49 41.8          19.1 R EQ058651
     K06Q89V  C2006 08 29.48847 00 14 58.17 +07 49 48.5          19.1 R EQ058651
     K06Q89V  C2006 08 29.49106 00 15 00.29 +07 50 01.5          19.2 R EQ058651
     K06Q89V  C2006 08 29.93373 00 22 14.90 +08 28 50.4                 EQ058J95
     K06Q89V  C2006 08 29.93866 00 22 19.47 +08 29 18.5                 EQ058J95
     K06Q89V  C2006 08 29.94345 00 22 23.90 +08 29 46.2          18.9 R EQ058J95
     K06Q89V  C2006 08 30.24607 00 27 26.36 +08 59 35.0          18.9 R EQ058734
     K06Q89V  C2006 08 30.24791 00 27 28.10 +08 59 46.1          18.9 R EQ058734
     K06Q89V  C2006 08 30.24975 00 27 29.84 +08 59 57.2          19.3 R EQ058734
     K06Q89V  C2006 08 30.25159 00 27 31.56 +09 00 07.7          19.1 R EQ058734
     K06Q89V 5C2006 08 30.41211 00 30 09.59 +09 16 25.6          18.6 R EQ058673
     K06Q89V 5C2006 08 30.41696 00 30 14.14 +09 16 53.5                 EQ058673
     K06Q89V 5C2006 08 30.42292 00 30 19.87 +09 17 29.9                 EQ058673
     K06Q89V 5C2006 08 30.42622 00 30 23.05 +09 17 49.4                 EQ058673

Observer details:
651 Grasslands Observatory, Tucson.  Observer J. E. McGaha.  0.62-m f/5.1
    Newtonian reflector + CCD.
673 Table Mountain Observatory, Wrightwood.  Observer J. Young.  0.61-m f/16
    Cassegrain + CCD.
703 Catalina Sky Survey.  Observer R. A. Kowalski.  Measurers E. C. Beshore,
    E. J. Christensen, G. J. Garradd, A. R. Gibbs, A. D. Grauer, R. E. Hill,
    R. A. Kowalski, S. M. Larson, R. H. McNaught.  0.68-m Schmidt + CCD.
734 Farpoint Observatory.  Observer D. Tibbets.  Measurer G. Hug.  0.7-m
    reflector + CCD.
J95 Great Shefford.  Observer P. Birtwhistle.  0.40-m f/6.0 Schmidt-Cassegrain
    + CCD.

Orbital elements:
2006 QV89                                                Earth MOID = 0.0000 AU
Epoch 2006 Sept. 22.0 TT = JDT 2454000.5                MPC
M 333.64558              (2000.0)            P               Q
n   0.75731724     Peri.  236.64772     +0.73327476     -0.67991781
a   1.1920217      Node   166.18771     +0.62987075     +0.67679974
e   0.2247530      Incl.    1.07080     +0.25606829     +0.28223019
P   1.30           H   25.4           G   0.15           U   7
Residuals in seconds of arc
060829 703  0.1+  0.6-    060829 651  0.2-  0.6+    060830 734  0.3-  0.0
060829 703  0.8-  0.1+    060829 651  0.4+  0.6+    060830 734  0.6-  0.5-
060829 703  0.4+  0.8+    060829 651  0.2+  0.2+    060830 673  0.4+  0.6+
060829 673  0.9-  1.0-    060829 J95  0.1+  0.0     060830 673  0.6-  0.4-
060829 673  0.5+  0.0     060829 J95  0.1+  0.2-    060830 673  0.2+  0.4+
060829 673  0.8+  0.1+    060829 J95  0.0   0.0     060830 673  0.6+  0.2+
060829 673  0.2-  0.2-    060830 734  0.2-  0.2-
060829 651  0.4-  0.1-    060830 734  0.2-  0.1-

Ephemeris:
2006 QV89                a,e,i = 1.19, 0.22, 1                   q = 0.9241
Date    TT    R. A. (2000) Decl.     Delta      r     Elong.  Phase     V
2006 08 23    23 13.39   +01 28.2    0.0511   1.059   159.0    20.0    20.1
2006 08 25    23 26.80   +02 54.7    0.0447   1.052   157.3    21.8    19.8
2006 08 27    23 44.36   +04 45.5    0.0386   1.046   154.6    24.5    19.6
2006 08 29    00 08.07   +07 10.0    0.0330   1.039   150.2    28.9    19.3
2006 08 31    00 41.04   +10 19.3    0.0279   1.032   143.5    35.5    19.2
2006 09 02    01 27.56   +14 17.2    0.0238   1.026   133.6    45.4    19.1
2006 09 04    02 31.34   +18 35.3    0.0212   1.019   119.8    59.2    19.2
2006 09 06    03 49.17   +21 48.9    0.0204   1.013   103.3    75.6    19.6
2006 09 08    05 06.48   +22 42.6    0.0219   1.007    87.5    91.3    20.3
2006 09 10    06 09.29   +21 43.9    0.0250   1.001    74.9   103.7    21.2
2006 09 12    06 55.12   +20 03.7    0.0294   0.995    66.1   112.4    22.0

Timothy B. Spahr             (C) Copyright 2006 MPC           M.P.E.C. 2006-Q58

Read MPEC 2006-Q57 Read MPEC 2006-Q59


Our Web policy. Index to the CBAT/MPC/ICQ pages.


Valid HTML 4.01!